When you browse on this site, cookies collect data to enhance your experience and personalize the content and advertising you see.
Visit our Privacy Policy to learn more. By continuing to use the site, you agree to this use of cookies and data.
  • In Austria
  • List of Countries
  • For 7 days
  • Water Temperature
  • Weather Map
  • News
  • Weather Widgets
  • user-avatar
    Login

    Hourly Weather Zasuv

    Today, 14 November, Thursday

    Time Temperature Precipitation Wind Pressure Humidity
    00:00 +13°C° 0 mm 10 mps 734 mmHg 67%
    01:00 +13°C° 0 mm 9 mps 734 mmHg 70%
    02:00 +12°C° 0 mm 9 mps 735 mmHg 72%
    03:00 +12°C° 0 mm 8 mps 735 mmHg 74%
    04:00 +12°C° 0 mm 8 mps 735 mmHg 76%
    05:00 +12°C° 0 mm 7 mps 735 mmHg 77%
    06:00 +11°C° 0 mm 7 mps 735 mmHg 79%
    07:00 +11°C° 0 mm 6 mps 736 mmHg 80%
    08:00 +11°C° 0 mm 6 mps 736 mmHg 81%
    09:00 +11°C° 0 mm 6 mps 736 mmHg 79%
    10:00 +12°C° 0 mm 5 mps 737 mmHg 77%
    11:00 +12°C° 0 mm 5 mps 737 mmHg 75%
    12:00 +13°C° 0 mm 5 mps 737 mmHg 74%
    13:00 +13°C° 0 mm 4 mps 737 mmHg 73%
    14:00 +13°C° 0 mm 4 mps 737 mmHg 72%
    15:00 +13°C° 0 mm 4 mps 737 mmHg 72%
    16:00 +12°C° 0 mm 3 mps 737 mmHg 71%
    17:00 +12°C° 0 mm 3 mps 737 mmHg 71%
    18:00 +12°C° 0 mm 3 mps 737 mmHg 72%
    19:00 +11°C° 0 mm 4 mps 738 mmHg 72%
    20:00 +11°C° 0 mm 4 mps 738 mmHg 72%
    21:00 +10°C° 0 mm 4 mps 738 mmHg 73%
    22:00 +10°C° 0 mm 4 mps 738 mmHg 74%
    23:00 +8°C° 0 mm 4 mps 738 mmHg 76%

    Tomorrow, 15 November, Friday

    Time Temperature Precipitation Wind Pressure Humidity
    00:00 +8°C° 0 mm 4 mps 738 mmHg 77%
    01:00 +8°C° 0 mm 4 mps 738 mmHg 78%
    02:00 +8°C° 0 mm 4 mps 738 mmHg 78%
    03:00 +8°C° 0 mm 4 mps 738 mmHg 80%
    04:00 +8°C° 0 mm 4 mps 738 mmHg 81%
    05:00 +8°C° 0 mm 4 mps 738 mmHg 82%
    06:00 +8°C° 0 mm 4 mps 738 mmHg 83%
    07:00 +7°C° 0 mm 4 mps 739 mmHg 84%
    08:00 +7°C° 0 mm 4 mps 739 mmHg 84%
    09:00 +8°C° 0 mm 4 mps 739 mmHg 80%
    10:00 +10°C° 0 mm 4 mps 739 mmHg 75%
    11:00 +10°C° 0 mm 5 mps 739 mmHg 70%
    12:00 +10°C° 0 mm 5 mps 739 mmHg 68%
    13:00 +11°C° 0 mm 4 mps 739 mmHg 66%
    14:00 +12°C° 0 mm 4 mps 739 mmHg 64%
    15:00 +11°C° 0 mm 4 mps 739 mmHg 66%
    16:00 +11°C° 0 mm 3 mps 739 mmHg 67%
    17:00 +10°C° 0 mm 3 mps 739 mmHg 69%
    18:00 +10°C° 0 mm 3 mps 739 mmHg 70%
    19:00 +10°C° 0 mm 3 mps 740 mmHg 72%
    20:00 +10°C° 0 mm 4 mps 740 mmHg 73%
    21:00 +8°C° 0 mm 4 mps 740 mmHg 77%
    22:00 +8°C° 0 mm 4 mps 740 mmHg 81%
    23:00 +7°C° 0 mm 4 mps 740 mmHg 85%

    Day after tomorrow, 16 November, Saturday

    Time Temperature Precipitation Wind Pressure Humidity
    00:00 +8°C° 0 mm 3 mps 740 mmHg 87%
    01:00 +8°C° 0 mm 3 mps 740 mmHg 90%
    02:00 +8°C° 0 mm 3 mps 740 mmHg 93%
    03:00 +8°C° 0 mm 3 mps 740 mmHg 93%
    04:00 +7°C° 0 mm 3 mps 740 mmHg 93%
    05:00 +7°C° 0 mm 3 mps 740 mmHg 93%
    06:00 +8°C° 0 mm 3 mps 740 mmHg 92%
    07:00 +8°C° 0 mm 3 mps 740 mmHg 91%
    08:00 +8°C° 0 mm 3 mps 741 mmHg 90%
    09:00 +8°C° 0 mm 4 mps 741 mmHg 84%
    10:00 +11°C° 0 mm 4 mps 741 mmHg 79%
    11:00 +12°C° 0 mm 4 mps 741 mmHg 73%
    12:00 +12°C° 0 mm 4 mps 741 mmHg 72%
    13:00 +13°C° 0 mm 4 mps 741 mmHg 72%
    14:00 +13°C° 0 mm 4 mps 741 mmHg 71%
    15:00 +12°C° 0 mm 4 mps 741 mmHg 75%
    16:00 +12°C° 0 mm 4 mps 741 mmHg 80%
    17:00 +11°C° 0 mm 4 mps 741 mmHg 85%
    18:00 +10°C° 0 mm 4 mps 741 mmHg 87%
    19:00 +10°C° 0 mm 4 mps 742 mmHg 89%
    20:00 +10°C° 0 mm 4 mps 742 mmHg 91%
    21:00 +10°C° 0 mm 4 mps 742 mmHg 91%
    22:00 +8°C° 0 mm 4 mps 742 mmHg 90%
    23:00 +9°C° 0 mm 3 mps 742 mmHg 90%

    17 November, Sunday

    Time Temperature Precipitation Wind Pressure Humidity
    00:00 +9°C° 0 mm 3 mps 742 mmHg 90%
    01:00 +9°C° 0 mm 3 mps 742 mmHg 89%
    02:00 +9°C° 0 mm 3 mps 742 mmHg 88%
    03:00 +9°C° 0 mm 3 mps 742 mmHg 90%
    04:00 +8°C° 0 mm 3 mps 742 mmHg 91%
    05:00 +8°C° 0 mm 3 mps 742 mmHg 92%
    06:00 +8°C° 0 mm 3 mps 742 mmHg 92%
    07:00 +8°C° 0 mm 3 mps 742 mmHg 93%
    08:00 +8°C° 0 mm 3 mps 742 mmHg 94%
    09:00 +8°C° 0 mm 4 mps 742 mmHg 91%
    10:00 +10°C° 0 mm 4 mps 742 mmHg 89%
    11:00 +10°C° 0 mm 5 mps 742 mmHg 87%
    12:00 +10°C° 0 mm 5 mps 742 mmHg 83%
    13:00 +12°C° 0 mm 5 mps 742 mmHg 79%
    14:00 +13°C° 0 mm 4 mps 742 mmHg 75%
    15:00 +12°C° 0 mm 4 mps 741 mmHg 78%
    16:00 +12°C° 0 mm 4 mps 741 mmHg 82%
    17:00 +11°C° 0 mm 3 mps 741 mmHg 85%
    18:00 +11°C° 0 mm 4 mps 741 mmHg 85%
    19:00 +11°C° 0 mm 4 mps 741 mmHg 85%
    20:00 +10°C° 0 mm 4 mps 741 mmHg 85%
    21:00 +9°C° 0 mm 5 mps 741 mmHg 83%
    22:00 +9°C° 0 mm 5 mps 741 mmHg 80%
    23:00 +9°C° 0 mm 5 mps 740 mmHg 78%

    18 November, Monday

    Time Temperature Precipitation Wind Pressure Humidity
    00:00 +9°C° 0 mm 5 mps 740 mmHg 76%
    01:00 +9°C° 0 mm 5 mps 740 mmHg 75%
    02:00 +8°C° 0 mm 5 mps 739 mmHg 73%
    03:00 +8°C° 0 mm 6 mps 739 mmHg 72%
    04:00 +8°C° 0 mm 6 mps 739 mmHg 70%
    05:00 +8°C° 0 mm 6 mps 739 mmHg 69%
    06:00 +8°C° 0 mm 6 mps 738 mmHg 69%
    07:00 +8°C° 0 mm 6 mps 738 mmHg 69%
    08:00 +7°C° 0 mm 6 mps 738 mmHg 69%
    09:00 +8°C° 0 mm 7 mps 738 mmHg 66%
    10:00 +9°C° 0 mm 7 mps 738 mmHg 64%
    11:00 +10°C° 0 mm 8 mps 739 mmHg 61%
    12:00 +11°C° 0 mm 7 mps 738 mmHg 60%
    13:00 +11°C° 0 mm 7 mps 738 mmHg 60%
    14:00 +13°C° 0 mm 6 mps 738 mmHg 59%
    15:00 +11°C° 0 mm 6 mps 738 mmHg 66%
    16:00 +10°C° 0 mm 5 mps 738 mmHg 73%
    17:00 +8°C° 0 mm 5 mps 738 mmHg 80%
    18:00 +8°C° 0 mm 5 mps 738 mmHg 83%
    19:00 +8°C° 0 mm 4 mps 739 mmHg 85%
    20:00 +8°C° 0 mm 4 mps 739 mmHg 88%
    21:00 +8°C° 0 mm 4 mps 739 mmHg 89%
    22:00 +8°C° 0 mm 4 mps 739 mmHg 90%
    23:00 +9°C° 0 mm 3 mps 740 mmHg 91%

    19 November, Tuesday

    Time Temperature Precipitation Wind Pressure Humidity
    00:00 +8°C° 0 mm 3 mps 740 mmHg 91%
    01:00 +8°C° 0 mm 3 mps 740 mmHg 92%
    02:00 +8°C° 0 mm 2 mps 740 mmHg 92%
    03:00 +8°C° 0 mm 2 mps 740 mmHg 92%
    04:00 +8°C° 0 mm 2 mps 741 mmHg 91%
    05:00 +8°C° 0 mm 2 mps 741 mmHg 91%
    06:00 +8°C° 0 mm 2 mps 741 mmHg 91%
    07:00 +8°C° 0 mm 2 mps 741 mmHg 92%
    08:00 +7°C° 0 mm 2 mps 741 mmHg 92%
    09:00 +9°C° 0 mm 2 mps 741 mmHg 88%
    10:00 +10°C° 0 mm 2 mps 742 mmHg 83%
    11:00 +12°C° 0 mm 2 mps 742 mmHg 79%
    12:00 +13°C° 0 mm 2 mps 742 mmHg 75%
    13:00 +14°C° 0 mm 2 mps 742 mmHg 71%
    14:00 +15°C° 0 mm 2 mps 741 mmHg 66%
    15:00 +14°C° 0 mm 2 mps 741 mmHg 71%
    16:00 +13°C° 0 mm 2 mps 741 mmHg 76%
    17:00 +12°C° 0 mm 2 mps 741 mmHg 80%
    18:00 +10°C° 0 mm 2 mps 741 mmHg 83%
    19:00 +10°C° 0 mm 2 mps 741 mmHg 87%
    20:00 +9°C° 0 mm 3 mps 741 mmHg 90%
    21:00 +9°C° 0 mm 3 mps 741 mmHg 91%
    22:00 +9°C° 0 mm 2 mps 741 mmHg 92%
    23:00 +9°C° 0 mm 2 mps 741 mmHg 94%
    Show more